Temp
-14 -14 -14 -14 -14 -14 -14 -14 -14 -14 -14 -13 -13 -13 -13 -13 -13 -13 -13 -13 -13 -13 -13 -13 -13 -13 -13 -13 -13 -13 -13 -13 -13 -13 -13 -12 -12 -12 -12 -12 -12 -11
-14 -14 -14 -14 -14 -14 -14 -14 -14 -14 -14 -14 -14 -14 -13 -13 -13 -13 -13 -13 -13 -13 -13 -13 -13 -12 -12 -12 -12 -12 -12 -12 -13 -13 -13 -13 -13 -12 -12 -12 -12 -12
-15 -14 -14 -14 -14 -14 -14 -14 -14 -14 -14 -14 -14 -14 -14 -14 -14 -13 -13 -13 -13 -13 -13 -13 -13 -13 -13 -12 -12 -12 -12 -12 -12 -12 -12 -13 -13 -13 -13 -12 -12 -12
-16 -15 -15 -15 -14 -14 -14 -14 -14 -14 -14 -14 -14 -14 -14 -14 -14 -14 -14 -14 -14 -13 -13 -13 -13 -13 -13 -13 -13 -13 -13 -12 -12 -12 -12 -12 -13 -13 -13 -13 -12 -12
-16 -16 -16 -15 -15 -15 -15 -14 -14 -14 -15 -15 -15 -15 -15 -14 -14 -14 -14 -14 -14 -14 -14 -14 -13 -13 -13 -13 -13 -13 -13 -13 -13 -13 -13 -13 -13 -13 -13 -13 -13 -13
-17 -17 -17 -16 -16 -16 -15 -15 -15 -15 -15 -15 -15 -15 -15 -15 -15 -15 -15 -15 -15 -15 -14 -14 -14 -14 -13 -13 -13 -13 -13 -13 -13 -13 -13 -13 -13 -13 -13 -13 -13 -13
-18 -18 -17 -17 -17 -16 -16 -16 -16 -16 -15 -15 -15 -15 -15 -15 -15 -15 -15 -15 -15 -15 -15 -15 -15 -14 -14 -14 -13 -13 -13 -13 -13 -13 -13 -13 -13 -13 -13 -13 -13 -13
-18 -18 -18 -18 -18 -17 -17 -17 -16 -16 -16 -16 -16 -16 -16 -16 -16 -15 -15 -15 -15 -15 -15 -15 -15 -15 -15 -15 -14 -14 -14 -13 -13 -13 -13 -13 -13 -13 -13 -13 -13 -13
-19 -19 -19 -19 -19 -18 -18 -18 -17 -17 -17 -17 -17 -17 -16 -16 -16 -16 -16 -16 -16 -16 -15 -15 -15 -15 -15 -15 -15 -15 -15 -14 -14 -14 -14 -13 -13 -13 -13 -13 -13 -13
-20 -20 -20 -20 -20 -19 -19 -19 -19 -18 -18 -18 -17 -17 -17 -17 -17 -17 -16 -16 -16 -16 -16 -16 -16 -16 -15 -15 -15 -15 -15 -15 -14 -14 -14 -14 -14 -14 -14 -14 -14 -13
-21 -21 -20 -20 -20 -20 -20 -20 -20 -19 -19 -19 -18 -18 -18 -17 -17 -17 -17 -17 -17 -17 -17 -16 -16 -16 -16 -16 -15 -15 -15 -15 -15 -15 -14 -14 -14 -14 -14 -14 -14 -14
-21 -21 -21 -21 -21 -21 -21 -21 -20 -20 -20 -20 -19 -19 -19 -18 -18 -18 -18 -18 -17 -17 -17 -17 -17 -17 -16 -16 -16 -16 -16 -16 -15 -15 -15 -15 -15 -15 -14 -14 -14 -14
-22 -22 -22 -21 -21 -21 -21 -21 -21 -21 -21 -21 -20 -20 -20 -20 -19 -19 -19 -19 -18 -18 -18 -18 -17 -17 -17 -17 -17 -16 -16 -16 -16 -16 -16 -16 -15 -15 -15 -15 -15 -14
-22 -22 -22 -22 -22 -22 -22 -21 -21 -21 -21 -21 -21 -21 -21 -20 -20 -20 -20 -19 -19 -19 -19 -18 -18 -18 -18 -18 -17 -17 -17 -17 -17 -16 -16 -16 -16 -16 -15 -15 -15 -15
-23 -23 -23 -22 -22 -22 -22 -22 -22 -22 -22 -21 -21 -21 -21 -21 -21 -21 -20 -20 -20 -20 -20 -19 -19 -19 -19 -18 -18 -18 -18 -18 -17 -17 -17 -17 -17 -16 -16 -16 -16 -15
-23 -23 -23 -23 -23 -23 -23 -22 -22 -22 -22 -22 -22 -22 -21 -21 -21 -21 -21 -21 -21 -20 -20 -20 -20 -20 -19 -19 -19 -19 -18 -18 -18 -18 -18 -18 -17 -17 -17 -17 -16 -16
-24 -24 -24 -24 -23 -23 -23 -23 -23 -23 -22 -22 -22 -22 -22 -22 -21 -21 -21 -21 -21 -21 -21 -20 -20 -20 -20 -20 -20 -19 -19 -19 -19 -19 -18 -18 -18 -18 -18 -17 -17 -17
-25 -25 -24 -24 -24 -24 -24 -23 -23 -23 -23 -23 -22 -22 -22 -22 -22 -22 -21 -21 -21 -21 -21 -21 -21 -20 -20 -20 -20 -20 -20 -19 -19 -19 -19 -19 -18 -18 -18 -18 -18 -18
-25 -25 -25 -25 -25 -24 -24 -24 -23 -23 -23 -23 -23 -22 -22 -22 -22 -22 -22 -22 -21 -21 -21 -21 -21 -21 -21 -20 -20 -20 -20 -20 -20 -19 -19 -19 -19 -19 -18 -18 -18 -18
-26 -26 -26 -25 -25 -25 -25 -24 -24 -24 -23 -23 -23 -23 -23 -22 -22 -22 -22 -22 -22 -22 -22 -21 -21 -21 -21 -21 -20 -20 -20 -20 -20 -20 -19 -19 -19 -19 -19 -19 -18 -18
-26 -26 -26 -26 -25 -25 -25 -25 -25 -24 -24 -24 -24 -23 -23 -23 -23 -22 -22 -22 -22 -22 -22 -22 -22 -21 -21 -21 -21 -21 -20 -20 -20 -20 -20 -19 -19 -19 -19 -19 -19 -18
-27 -26 -26 -26 -26 -25 -25 -25 -25 -25 -25 -24 -24 -24 -24 -23 -23 -23 -23 -22 -22 -22 -22 -22 -22 -22 -21 -21 -21 -21 -21 -21 -20 -20 -20 -20 -20 -19 -19 -19 -19 -19
-27 -27 -26 -26 -26 -26 -25 -25 -25 -25 -25 -25 -25 -24 -24 -24 -24 -23 -23 -23 -23 -23 -22 -22 -22 -22 -22 -21 -21 -21 -21 -21 -21 -21 -20 -20 -20 -20 -20 -20 -19 -19
-28 -27 -27 -27 -26 -26 -26 -26 -26 -25 -25 -25 -25 -25 -25 -25 -24 -24 -24 -24 -23 -23 -23 -23 -23 -22 -22 -22 -22 -21 -21 -21 -21 -21 -20 -20 -20 -20 -20 -20 -20 -19
-29 -28 -28 -27 -27 -26 -26 -26 -26 -26 -26 -26 -26 -25 -25 -25 -25 -25 -24 -24 -24 -24 -24 -24 -23 -23 -23 -23 -22 -22 -22 -21 -21 -21 -21 -20 -20 -20 -20 -20 -20 -20
-29 -29 -28 -28 -27 -27 -27 -26 -26 -26 -26 -26 -26 -26 -26 -26 -25 -25 -25 -25 -25 -25 -24 -24 -24 -24 -24 -23 -23 -23 -22 -22 -22 -21 -21 -21 -21 -20 -20 -20 -20 -20
Height
5649 5652 5654 5657 5660 5662 5665 5667 5670 5673 5675 5677 5680 5682 5685 5687 5690 5693 5696 5699 5702 5704 5707 5709 5712 5714 5716 5719 5721 5723 5725 5727 5729 5731 5732 5734 5735 5737 5738 5739 5740 5741
5640 5643 5645 5648 5650 5653 5656 5658 5661 5664 5666 5669 5671 5673 5675 5678 5680 5683 5685 5688 5691 5694 5697 5700 5702 5705 5707 5710 5712 5714 5717 5719 5720 5722 5724 5726 5727 5729 5730 5731 5733 5733
5630 5633 5636 5638 5641 5644 5646 5649 5652 5654 5657 5659 5662 5664 5666 5668 5671 5673 5675 5678 5680 5683 5686 5689 5692 5695 5698 5700 5702 5705 5707 5709 5711 5713 5715 5717 5718 5720 5722 5723 5725 5726
5620 5623 5626 5628 5631 5634 5637 5640 5642 5645 5647 5650 5652 5655 5657 5660 5662 5664 5666 5668 5670 5673 5676 5679 5682 5684 5687 5690 5692 5694 5697 5699 5701 5704 5706 5708 5709 5711 5713 5714 5716 5717
5610 5613 5616 5618 5621 5624 5627 5630 5632 5635 5638 5640 5643 5645 5647 5650 5652 5655 5657 5659 5661 5663 5666 5668 5671 5674 5676 5679 5681 5684 5686 5688 5691 5694 5696 5698 5699 5701 5703 5705 5707 5708
5600 5603 5606 5609 5612 5615 5617 5620 5622 5625 5628 5631 5633 5636 5638 5641 5643 5645 5647 5650 5652 5654 5656 5658 5661 5663 5666 5669 5671 5673 5676 5678 5680 5683 5686 5688 5689 5691 5693 5695 5697 5699
5592 5594 5597 5600 5603 5605 5608 5611 5613 5616 5618 5621 5624 5626 5629 5632 5634 5636 5638 5641 5643 5645 5647 5649 5651 5654 5656 5658 5661 5663 5666 5668 5670 5673 5675 5677 5679 5681 5682 5685 5687 5689
5584 5586 5589 5591 5594 5596 5599 5602 5604 5607 5609 5612 5614 5616 5619 5622 5624 5627 5629 5631 5634 5635 5638 5640 5642 5644 5647 5649 5651 5653 5656 5658 5660 5663 5665 5667 5669 5671 5672 5674 5677 5679
5577 5579 5581 5583 5585 5588 5590 5593 5595 5598 5600 5602 5605 5607 5610 5612 5614 5617 5620 5622 5624 5626 5628 5630 5632 5635 5637 5640 5642 5644 5646 5648 5650 5653 5655 5657 5659 5661 5662 5664 5666 5669
5569 5571 5573 5575 5577 5579 5581 5584 5586 5588 5591 5593 5596 5598 5601 5603 5605 5608 5610 5612 5614 5616 5618 5620 5622 5625 5628 5630 5633 5635 5637 5639 5641 5643 5645 5647 5649 5651 5653 5655 5657 5659
5561 5563 5566 5567 5569 5571 5573 5575 5577 5580 5582 5584 5587 5589 5591 5594 5596 5598 5601 5603 5605 5607 5609 5611 5613 5615 5618 5620 5623 5625 5628 5630 5632 5634 5635 5637 5640 5642 5644 5645 5647 5649
5553 5556 5558 5560 5562 5564 5566 5568 5570 5572 5573 5576 5578 5580 5582 5585 5587 5589 5591 5594 5596 5598 5600 5602 5604 5607 5609 5611 5613 5616 5619 5621 5623 5624 5626 5628 5630 5632 5633 5636 5637 5639
5545 5548 5550 5552 5554 5556 5558 5560 5562 5563 5565 5567 5569 5571 5574 5576 5578 5580 5582 5584 5586 5588 5590 5593 5595 5597 5599 5602 5604 5607 5609 5611 5613 5615 5617 5618 5620 5621 5623 5625 5627 5629
5537 5539 5541 5543 5545 5547 5549 5551 5553 5555 5557 5559 5561 5563 5566 5568 5570 5572 5574 5576 5578 5579 5581 5583 5586 5588 5590 5592 5595 5597 5600 5602 5604 5605 5607 5609 5610 5612 5613 5615 5617 5619
5529 5531 5533 5535 5537 5539 5541 5543 5545 5547 5549 5551 5553 5555 5557 5559 5562 5564 5566 5567 5569 5571 5572 5574 5576 5578 5580 5583 5585 5588 5590 5593 5594 5596 5597 5599 5601 5602 5604 5605 5607 5609
5521 5523 5525 5527 5529 5531 5533 5535 5537 5539 5541 5543 5545 5547 5549 5551 5554 5555 5557 5559 5561 5562 5564 5566 5567 5569 5571 5573 5576 5578 5581 5583 5585 5587 5588 5590 5592 5593 5594 5596 5597 5599
5513 5515 5517 5519 5521 5523 5525 5527 5529 5531 5533 5535 5537 5539 5541 5543 5545 5547 5549 5550 5552 5553 5555 5557 5559 5561 5562 5564 5566 5569 5572 5574 5576 5578 5579 5581 5583 5584 5586 5587 5588 5589
5505 5508 5510 5512 5514 5515 5517 5519 5521 5523 5525 5526 5528 5530 5532 5534 5536 5538 5540 5541 5543 5544 5546 5548 5550 5552 5553 5555 5558 5560 5562 5565 5567 5568 5570 5571 5573 5575 5576 5578 5580 5581
5497 5499 5501 5503 5505 5507 5509 5511 5513 5514 5516 5518 5520 5521 5523 5525 5527 5529 5531 5532 5534 5535 5536 5538 5540 5542 5544 5546 5548 5550 5553 5555 5557 5559 5561 5562 5563 5565 5566 5568 5570 5572
5489 5491 5492 5494 5496 5498 5501 5503 5504 5506 5508 5509 5511 5512 5514 5516 5518 5520 5521 5523 5524 5525 5526 5528 5530 5532 5534 5536 5538 5540 5543 5545 5547 5549 5551 5552 5554 5555 5556 5558 5559 5561
5480 5481 5483 5485 5488 5490 5493 5495 5496 5498 5500 5501 5502 5504 5505 5507 5509 5511 5512 5514 5515 5516 5516 5518 5520 5523 5524 5526 5528 5530 5532 5535 5537 5539 5541 5542 5544 5545 5546 5548 5549 5550
5470 5473 5475 5477 5480 5482 5485 5487 5488 5490 5492 5493 5494 5495 5497 5498 5500 5501 5503 5504 5506 5507 5507 5508 5510 5513 5515 5516 5518 5520 5523 5525 5526 5528 5530 5532 5534 5535 5536 5537 5538 5539
5462 5464 5466 5469 5471 5474 5476 5478 5480 5482 5483 5485 5486 5487 5488 5490 5491 5492 5494 5495 5496 5497 5497 5498 5499 5502 5504 5505 5507 5510 5512 5514 5516 5518 5520 5522 5523 5524 5525 5526 5527 5528
5453 5456 5458 5460 5463 5465 5468 5470 5472 5473 5475 5476 5477 5478 5479 5481 5482 5483 5485 5486 5487 5487 5488 5488 5489 5490 5493 5495 5496 5498 5500 5502 5504 5506 5509 5511 5513 5513 5514 5515 5516 5517
5444 5447 5449 5452 5454 5457 5459 5461 5463 5465 5466 5468 5469 5470 5471 5471 5473 5474 5475 5476 5477 5478 5478 5479 5479 5480 5482 5484 5485 5486 5488 5490 5492 5494 5497 5499 5501 5502 5503 5503 5504 5506
5436 5438 5440 5443 5445 5448 5450 5452 5454 5456 5458 5459 5460 5461 5462 5462 5464 5465 5465 5466 5467 5468 5468 5469 5470 5470 5471 5473 5475 5476 5477 5478 5480 5482 5485 5487 5488 5490 5491 5492 5492 5494
Wind_Speed
79 80 82 83 85 86 86 86 85 85 86 86 87 87 88 88 89 90 92 92 91 90 89 88 87 87 86 85 84 83 82 81 80 79 78 77 76 76 76 75 75 75
82 81 81 83 84 86 86 87 87 87 87 87 87 88 88 88 88 89 90 91 92 92 91 91 90 89 89 88 87 86 85 84 83 82 81 80 79 79 78 78 77 77
84 84 83 83 83 84 85 85 86 87 88 89 89 89 89 89 89 89 88 88 89 90 91 91 90 90 90 90 89 89 88 87 86 85 84 83 82 81 81 80 80 79
81 84 85 85 85 85 84 84 84 84 85 87 89 90 90 90 90 90 89 88 88 89 89 89 89 89 90 90 90 90 90 89 88 87 86 86 85 84 83 83 83 82
77 79 82 85 86 86 86 85 85 84 83 84 84 86 88 89 90 90 90 89 89 89 89 90 89 89 89 89 90 90 90 90 89 88 88 87 87 86 85 85 84 83
75 76 78 80 83 85 86 86 86 85 84 84 83 82 83 84 85 86 88 89 89 89 90 90 90 90 90 90 90 90 90 89 89 88 87 87 86 85 85 86 85 84
73 73 74 75 77 80 82 83 85 85 85 84 83 83 82 81 81 81 83 84 85 86 87 88 89 89 89 90 89 89 89 88 88 87 87 87 86 85 85 86 86 86
71 71 71 71 72 74 76 78 80 81 82 82 82 82 82 81 81 81 81 81 82 83 83 85 85 86 87 87 87 88 88 87 86 86 86 86 85 85 85 86 87 87
68 69 68 69 69 69 71 72 74 76 77 78 79 79 79 80 80 81 81 81 81 82 82 82 83 83 84 84 84 85 85 85 84 84 83 83 83 83 84 84 84 84
67 67 67 67 67 66 67 68 69 71 73 74 75 76 77 77 78 78 79 80 80 81 81 82 82 82 82 82 83 83 83 82 82 81 81 81 81 82 82 82 82 82
66 66 66 66 66 65 65 64 65 66 68 70 72 73 74 74 75 76 76 77 78 78 79 79 80 80 81 81 81 82 82 82 82 81 81 81 81 81 82 82 82 82
65 65 66 66 66 65 65 64 64 64 64 66 67 69 70 71 72 72 73 74 74 75 76 77 77 78 78 78 79 79 80 80 80 80 80 80 81 82 82 83 83 83
66 66 66 65 65 65 65 65 64 64 64 64 64 65 66 67 69 69 70 70 71 72 73 74 74 75 75 76 76 76 76 76 76 77 77 77 78 80 81 82 82 83
66 66 66 66 66 66 66 65 65 65 64 64 64 64 64 65 66 67 68 68 69 69 70 71 72 72 73 73 74 74 74 74 74 74 74 74 75 76 77 78 79 80
67 67 67 67 67 66 66 66 66 66 66 66 65 65 65 65 65 66 66 67 68 68 69 69 70 70 71 72 72 72 72 72 72 72 72 72 73 73 74 75 76 77
67 67 67 67 67 67 67 67 67 67 67 67 66 66 66 66 66 66 66 67 68 68 69 69 69 70 70 71 71 71 71 72 72 72 72 72 72 72 72 73 74 75
66 67 67 67 67 67 67 67 68 68 68 68 67 67 67 67 67 67 67 67 68 69 69 70 70 71 71 71 71 71 71 71 72 72 72 72 72 72 72 72 72 73
66 66 67 67 67 67 68 68 68 68 69 69 69 69 69 69 69 69 69 69 69 70 70 71 71 72 72 73 73 73 72 72 72 72 73 73 73 73 73 73 73 73
68 68 68 68 69 69 70 70 70 71 71 71 71 72 71 71 71 71 71 71 71 72 72 72 73 73 73 74 74 74 74 74 74 74 74 74 74 74 75 75 75 74
70 70 70 70 70 71 71 72 72 73 73 73 74 74 74 74 74 74 74 74 74 74 74 74 74 74 75 75 75 75 75 75 76 76 76 76 75 76 76 76 76 76
72 72 72 72 71 71 71 71 72 72 73 74 74 75 75 76 76 76 76 76 76 76 76 76 76 76 76 76 76 76 76 76 76 77 77 77 77 77 77 78 78 78
74 74 74 74 73 73 72 72 72 72 73 73 74 75 75 76 77 77 77 77 78 78 78 79 79 78 78 78 78 78 78 77 78 78 78 78 78 78 79 79 80 80
74 74 75 75 75 74 74 73 73 73 73 73 74 74 75 76 76 77 77 78 79 79 80 80 81 81 81 81 81 80 80 80 80 79 79 79 79 79 80 80 81 81
72 73 73 73 74 74 73 73 72 72 72 73 74 74 75 75 76 76 77 77 78 79 80 80 81 82 82 82 82 83 83 82 82 82 82 81 81 81 82 82 82 82
73 73 73 72 72 72 72 72 71 72 72 72 73 74 74 75 76 76 77 77 77 78 79 79 80 81 81 82 83 83 84 84 84 84 84 84 84 84 84 84 84 84
74 75 75 75 75 74 74 73 72 72 72 72 73 74 74 75 75 76 76 77 77 78 78 79 79 80 80 81 81 82 83 84 84 85 85 85 85 86 86 86 86 86
Wind_Direction
238 239 240 241 242 242 243 243 244 245 247 248 249 251 252 252 252 252 252 251 251 251 251 251 252 252 252 252 253 253 253 253 254 254 254 255 255 255 256 257 257 258
238 238 239 240 241 242 242 243 243 244 245 246 247 249 250 252 253 253 254 253 253 252 252 252 253 253 253 253 254 254 254 254 254 255 255 255 256 256 256 257 257 258
242 240 239 239 239 240 241 242 243 244 245 246 246 247 248 250 251 252 253 254 254 254 254 254 254 255 255 255 255 255 255 255 255 256 256 256 257 257 257 258 258 258
245 244 243 241 240 239 239 240 241 242 243 245 246 246 247 248 249 250 252 253 254 255 255 256 256 256 256 256 256 256 256 256 256 257 257 258 258 258 258 259 259 259
246 246 245 245 244 243 242 241 241 240 241 242 243 245 246 246 247 248 249 250 252 254 255 256 256 256 256 256 256 257 257 257 257 257 258 258 259 259 259 259 259 259
247 247 247 246 246 246 246 245 245 244 243 242 242 243 244 245 246 247 248 249 250 251 253 254 255 256 257 257 257 257 257 257 257 258 258 258 259 259 259 259 259 259
248 248 248 248 247 247 248 248 248 248 248 247 246 246 245 245 245 246 247 248 248 249 250 251 253 255 256 257 257 257 257 257 257 258 258 259 260 260 260 260 260 260
248 249 250 250 250 249 249 249 249 249 250 250 250 250 249 248 248 247 247 247 248 248 248 249 250 252 253 255 256 257 257 257 257 257 258 259 260 261 261 261 261 261
248 249 250 251 251 251 251 250 250 250 250 250 251 251 251 251 251 251 250 250 250 250 250 249 249 250 251 252 253 254 255 256 256 256 257 258 258 259 260 260 261 261
247 248 249 250 251 252 252 252 252 251 251 251 251 251 251 251 252 252 252 252 252 253 253 252 252 251 251 251 251 252 253 253 254 255 256 256 257 258 258 259 259 259
247 248 248 249 250 251 252 252 253 253 253 252 252 252 252 252 252 252 252 252 253 253 253 254 254 254 254 254 254 254 254 254 254 255 255 256 256 256 257 258 258 259
248 248 249 249 250 250 251 252 252 252 253 253 253 253 253 253 253 253 253 253 253 253 254 254 254 255 255 255 255 255 256 256 256 256 256 256 256 256 257 257 258 258
248 248 249 249 249 250 251 251 252 252 252 252 253 253 253 253 254 254 254 254 254 254 254 254 255 255 255 255 255 256 256 256 257 257 257 257 257 257 258 258 258 258
247 248 248 249 249 249 249 250 251 251 251 252 252 252 253 253 253 254 254 255 255 255 255 255 255 256 256 256 256 256 256 256 257 257 257 257 258 258 258 258 259 259
246 247 248 248 249 249 249 250 250 251 251 251 252 252 252 253 253 253 254 254 255 255 255 256 256 256 256 256 257 257 257 257 258 258 258 258 258 258 258 259 259 259
245 246 247 248 248 249 250 250 251 251 251 252 252 252 253 253 253 253 254 254 254 255 255 255 256 256 256 256 256 256 257 257 258 258 258 259 259 259 260 260 260 260
245 246 246 247 248 248 249 250 250 251 252 252 252 253 253 253 254 254 254 254 254 255 255 255 255 256 256 256 256 256 256 256 257 257 257 258 258 259 259 260 260 261
246 246 247 247 248 248 249 250 250 251 252 253 253 253 254 254 254 254 255 255 255 255 255 255 255 255 256 256 256 256 256 256 256 257 257 257 257 258 258 258 259 259
249 250 250 249 249 249 250 250 251 252 252 253 253 254 254 254 255 255 255 255 256 256 256 256 256 256 256 256 256 256 256 257 257 257 257 257 257 258 258 258 258 258
251 251 251 251 251 250 250 250 251 251 252 253 253 254 254 254 255 255 255 256 256 256 257 257 257 257 257 257 257 257 257 257 257 257 257 258 258 258 258 258 259 259
251 251 251 251 250 250 250 251 251 251 252 252 253 254 254 254 255 255 255 256 256 256 257 257 257 257 257 258 258 258 258 258 258 258 258 258 258 258 258 259 259 259
250 250 250 250 250 250 250 251 251 252 252 253 253 254 254 255 255 255 256 256 256 257 257 258 258 257 258 258 258 258 258 258 258 258 258 258 259 259 259 259 259 259
251 251 251 251 251 251 251 251 252 253 253 254 255 255 256 256 256 257 257 257 258 258 258 259 259 259 259 259 258 258 258 258 258 258 258 258 259 259 259 259 259 259
251 251 251 251 251 251 251 251 252 253 254 255 256 256 257 257 258 258 258 259 259 259 260 260 260 260 260 260 260 260 259 259 259 259 259 258 258 258 259 259 259 259
252 251 251 251 251 251 251 251 253 254 255 256 257 257 258 258 259 259 260 260 260 261 261 261 262 262 262 262 262 262 261 261 261 260 260 260 260 260 260 260 259 259
251 252 252 252 252 251 251 252 253 254 255 256 257 258 259 259 259 260 260 261 261 261 262 262 263 263 263 263 263 263 263 262 262 262 261 261 261 261 261 261 261 261